Weather History for New Orleans Lakefront, LA

Change the Weather History Date:

Tuesday, April 30, 2013

  Actual Average Record
Temperature  
Mean Temperature 72 °F 73 °F  
Max Temperature 77 °F 82 °F 89 °F (2002)
Min Temperature 66 °F 64 °F 46 °F (1965)
Degree Days  
Heating Degree Days 0 0  
Month to date heating degree days 32 32  
Since 1 July heating degree days 1130 1279  
Cooling Degree Days 7 8  
Month to date cooling degree days 136 157  
Year to date cooling degree days 204 257  
Growing Degree Days 22 (Base 50)    
Moisture  
Dew Point 67 °F    
Average Humidity 86    
Maximum Humidity 97    
Minimum Humidity 74    
Precipitation  
Precipitation 0.58 in 0.16 in 2.79 in (1975)
Month to date precipitation 11.62 4.61  
Year to date precipitation 26.50 19.61  
Snow  
Snow 0.00 in - - ()
Month to date snowfall 0.0  
Since 1 July snowfall 0.0  
Snow Depth 0.00 in    
Sea Level Pressure  
Sea Level Pressure 29.89 in    
Wind  
Wind Speed 6 mph (ESE)    
Max Wind Speed 29 mph    
Max Gust Speed 32 mph    
Visibility 8 miles    
Events Fog , Rain    
T = Trace of Precipitation, MM = Missing Value Source: NWS Daily Summary

Daily Weather History Graph

Daily Weather History Graph

Search for Another Location

Airport:

Trip Planner

Search our weather history database for the weather conditions in past years. The results will help you decide how hot, cold, wet, or windy it might be!

Date:

Astronomy

Apr. 30, 2013 Rise Set
Actual Time 6:17 AM CDT 7:37 PM CDT
Civil Twilight 5:52 AM CDT 8:02 PM CDT
Nautical Twilight 5:22 AM CDT 8:32 PM CDT
Astronomical Twilight 4:51 AM CDT 9:04 PM CDT
Moon No Moon Rise 10:50 AM CDT (4/30)
Length of Visible Light 14h 09m
Length of Day
13h 19m
Waning Gibbous, 70% of the Moon is Illuminated
Apr 30
Waning Gibbous
May 2
Last Quarter
May 9
New
May 17
First Quarter
May 24
Full

Hourly Weather History & Observations

Time (CDT) Temp. Dew Point Humidity Pressure Visibility Wind Dir Wind Speed Gust Speed Precip Events Conditions
12:53 AM 72.0 °F 68.0 °F 87% 29.89 in 9.0 mi SE 5.8 mph - N/A   Clear
1:53 AM 72.0 °F 68.0 °F 87% 29.88 in 9.0 mi ESE 8.1 mph - N/A   Clear
2:53 AM 71.1 °F 68.0 °F 90% 29.87 in 8.0 mi ESE 3.5 mph - N/A   Clear
3:53 AM 70.0 °F 68.0 °F 93% 29.87 in 7.0 mi SE 4.6 mph - N/A   Clear
4:46 AM 69.8 °F 68.0 °F 94% 29.88 in 6.0 mi ESE 4.6 mph - N/A   Scattered Clouds
4:53 AM 71.1 °F 68.0 °F 90% 29.86 in 6.0 mi ESE 5.8 mph - N/A   Mostly Cloudy
5:07 AM 69.8 °F 68.0 °F 94% 29.88 in 6.0 mi ESE 4.6 mph - N/A   Scattered Clouds
5:53 AM 70.0 °F 68.0 °F 93% 29.88 in 6.0 mi ESE 5.8 mph - 0.01 in   Clear
6:53 AM 71.1 °F 69.1 °F 93% 29.88 in 5.0 mi East 5.8 mph - N/A   Clear
7:39 AM 73.4 °F 69.8 °F 88% 29.90 in 5.0 mi East 8.1 mph - N/A   Partly Cloudy
7:53 AM 73.0 °F 69.1 °F 87% 29.88 in 7.0 mi East 10.4 mph - N/A   Scattered Clouds
8:34 AM 73.4 °F 68.0 °F 83% 29.91 in 10.0 mi East 8.1 mph - N/A   Overcast
8:53 AM 73.9 °F 68.0 °F 82% 29.89 in 10.0 mi East 6.9 mph - N/A   Mostly Cloudy
9:53 AM 75.0 °F 68.0 °F 79% 29.89 in 10.0 mi East 8.1 mph - N/A   Mostly Cloudy
10:53 AM 77.0 °F 68.0 °F 74% 29.91 in 10.0 mi ESE 12.7 mph - N/A   Mostly Cloudy
11:53 AM 75.9 °F 68.0 °F 76% 29.90 in 10.0 mi ESE 12.7 mph - N/A   Mostly Cloudy
12:53 PM 75.0 °F 69.1 °F 82% 29.88 in 10.0 mi East 15.0 mph 23.0 mph N/A   Mostly Cloudy
1:00 PM 75.2 °F 69.8 °F 83% 29.90 in 10.0 mi East 15.0 mph - N/A   Overcast
1:05 PM 75.2 °F 69.8 °F 83% 29.90 in 10.0 mi East 16.1 mph - N/A   Overcast
1:09 PM 75.2 °F 69.8 °F 83% 29.90 in 10.0 mi East 16.1 mph - 0.00 in Rain Light Rain
1:16 PM 73.4 °F 69.8 °F 88% 29.89 in 7.0 mi East 18.4 mph - 0.01 in Rain Light Rain
1:24 PM 73.4 °F 69.8 °F 88% 29.92 in 7.0 mi WSW 11.5 mph 17.3 mph 0.04 in Rain Light Rain
1:28 PM 69.8 °F 64.4 °F 83% 29.93 in 1.0 mi SW 21.9 mph 26.5 mph 0.26 in Rain Heavy Rain
1:34 PM 66.2 °F 62.6 °F 88% 29.94 in 0.2 mi SSW 17.3 mph 32.2 mph 0.49 in Fog , Rain Heavy Rain
1:39 PM 66.2 °F 64.4 °F 94% 29.92 in 0.2 mi SW 17.3 mph 27.6 mph 0.78 in Fog , Rain Heavy Rain
1:45 PM 66.2 °F 64.4 °F 94% 29.93 in 0.5 mi SW 19.6 mph 27.6 mph 0.91 in Fog , Rain Heavy Rain
1:51 PM 66.2 °F 64.4 °F 94% 29.93 in 1.0 mi SSW 13.8 mph 25.3 mph 0.95 in Rain Heavy Rain
1:53 PM 66.9 °F 64.0 °F 90% 29.91 in 1.5 mi SSW 11.5 mph 25.3 mph 0.96 in Rain Rain
1:58 PM 66.2 °F 64.4 °F 94% 29.92 in 3.0 mi South 11.5 mph - 0.01 in Rain Light Rain
2:53 PM 68.0 °F 64.0 °F 87% 29.89 in 7.0 mi ESE 4.6 mph - 0.15 in Rain Light Rain
3:53 PM 69.1 °F 64.0 °F 84% 29.85 in 10.0 mi SE 6.9 mph - 0.03 in Rain Light Rain
4:53 PM 71.1 °F 64.9 °F 81% 29.83 in 10.0 mi Calm Calm - 0.00 in   Mostly Cloudy
5:53 PM 71.1 °F 64.9 °F 81% 29.84 in 10.0 mi East 6.9 mph - N/A   Overcast
6:53 PM 71.1 °F 64.9 °F 81% 29.85 in 10.0 mi East 13.8 mph - N/A   Overcast
7:53 PM 71.1 °F 66.0 °F 84% 29.86 in 10.0 mi East 11.5 mph - N/A   Overcast
8:05 PM 71.6 °F 66.2 °F 83% 29.88 in 10.0 mi East 11.5 mph - N/A   Overcast
8:20 PM 69.8 °F 66.2 °F 88% 29.89 in 10.0 mi ENE 15.0 mph - N/A   Overcast
8:33 PM 69.8 °F 66.2 °F 88% 29.88 in 10.0 mi ENE 13.8 mph - N/A   Overcast
8:43 PM 69.8 °F 66.2 °F 88% 29.88 in 10.0 mi East 10.4 mph - N/A   Overcast
8:53 PM 70.0 °F 66.0 °F 87% 29.87 in 10.0 mi East 12.7 mph - N/A   Overcast
9:12 PM 69.8 °F 66.2 °F 88% 29.89 in 10.0 mi East 12.7 mph - N/A   Overcast
9:53 PM 70.0 °F 66.0 °F 87% 29.87 in 10.0 mi ENE 15.0 mph - N/A   Mostly Cloudy
10:53 PM 70.0 °F 66.9 °F 90% 29.88 in 10.0 mi East 11.5 mph - N/A   Overcast
11:20 PM 69.8 °F 66.2 °F 88% 29.89 in 10.0 mi East 5.8 mph - N/A   Mostly Cloudy
11:53 PM 71.6 °F 68.0 °F 88% 29.89 in 10.0 mi East 5.8 mph - N/A   Clear